STARLINK-3877, 52355

Orbit data source: Space-Track

STARLINK-3877, 52355 is a payload satellite owned by SpaceX/Seattle (US) in LEO that was launched on Fri, 29 Apr 2022 UTC via an FALCON 9 launch vehicle from the Air Force Eastern Test Range (AFETR). Payload-class satellites include a variety of spacecraft equipped with specific instruments for various scientific and technological missions. These include communications satellites like Starlink; space stations such as the ISS; scientific satellites like the Hubble; Earth observation satellites from companies like Planet Labs, Umbra, and HawkEye 360; GPS; miniature CubeSats for education and research; and military/defense satellites.

Loading next visibility...
Identifier
52355, 2022-045AA
Orbit
LEO
Country
Flag of USUS
Related business
Manufacturer
SpaceX/Seattle
Mission
Operational Commercial Communications
Bus & Motor
STARLINK, Unknown motor
Mass
297 kg wet, ~275 kg dry
Launch date (UTC)
2022-04-29 (4 years ago)
Launch vehicle
FALCON 9
Launch site
Air Force Eastern Test Range (AFETR)
Object type
Payload
Rocket body
Debris
Shape & HBR
Box + 1 Pan, 10.1 m
Radar Cross Section
11.087 m², Large (>1 m²)

Expand to show TLE details & history
Last TLE update: 7 hours ago

TLE from 7 hours ago
0 STARLINK-3877
1 52355U 22045AA  25346.98068383 -.00000825  00000-0 -33770-4 0  9999
2 52355  53.2182 228.3742 0001535 103.6301 256.4862 15.08826150202697
Epoch: 2025-12-12T23:32Z
TLE epoch observation values (Epoch: 2025-12-12T23:32:11.082Z)
Latitude
-0.00006°
Longitude
153.41346°
Altitude
540.932 km
Speed
7.593 km/s
True Right ascension
15h 13m 29s
True Declination
0° 00' 00"
Sunlit
Object was in daylight at epoch
Visualization orbit readout
Latitude
Unknown
Longitude
Unknown
Altitude
Unknown
Speed
Unknown
Apparent Right ascension
Unknown
Apparent Declination
Unknown
Sunlit
N/A
Visualization observer readout
Local Sidereal Time
05:23:52
Azimuth
Unknown
Elevation
Unknown
Doppler factor
Unknown
Orbital elements
Apogee altitude
541.092 km
Perigee altitude
538.969 km
Semi-major axis
6,918.168 km
Eccentricity
0.00015
Inclination
53.2182°
RAAN
228.3742°
Arg. of periapsis
103.6301°
True anomaly
256.4691°
Mean anomaly
256.4862°
Eccentric anomaly
256.47765°
Mean motion
3.77187 °/min
Orbital period
95.44 mins
BSTAR
-0.00003377
Loading maneuver chart data...
Computing Atmospheric mass density...
Loading historical data...
Loading historical data...
Loading historical data...
Loading historical data...
Loading historical data...
Loading historical data...
Loading historical data...

Documentation

Showing up to 5 results
|